"2022-11-26 00:01:00",3218085,3.196667,223.3988,3.755191,0.1403171,3.46,0,1.923334,216.7989,3.653307,0.1655966,2.21,0,-999,0,5,97.6,5.093,5.081,0.2,0,0,4.428,13.25,0.2,102.6299,3.056,3.058,3.056,100,0,0,0,434.1,172.1,172.1
"2022-11-26 00:02:00",3218086,3.201333,221.9322,3.452963,0.2387989,3.65,0,1.848,213.0063,4.770315,0.1510938,2.15,0,-999,0,5,97.6,5.096,5.079,0.2,0,0,4.428,13.25,0.2,102.6331,3.056,3.056,3.056,100,0,0,0,434.1,172.1,172.1
"2022-11-26 00:03:00",3218087,3.116666,220.6666,2.086834,0.1499185,3.42,0,2.04,214.4006,2.443508,0.2414401,2.45,0,-999,0,5,97.6,5.08,5.07,0.2,0,0,4.428,13.25,0.2,102.6334,3.056,3.056,3.056,100,0,0,0,434.1,172.1,172.1
"2022-11-26 00:04:00",3218088,3.276667,220.3336,2.240805,0.1608174,3.5,0,1.914,211.6004,4.01287,0.1704427,2.41,0,-999,0,5,97.5,5.138,5.111,0.2,0,0,4.44,13.25,0.2,102.6324,3.055,3.056,3.055,100,0,0,0,434.1,172.1,172.1
"2022-11-26 00:05:00",3218089,3.18,221,2.756578,0.0903327,3.37,0,1.932,212.9326,3.171355,0.1553576,2.31,0,-999,0,5.06,97.5,5.123,5.107,0.2,0,0,4.451,13.25,0.2,102.635,3.055,3.056,3.054,100,0,0,0,434.1,172.1,172.1
"2022-11-26 00:06:00",3218090,3.394,218.933,2.08016,0.1461415,3.63,0,1.953333,210.3375,3.8911,0.1748396,2.33,0,-999,0,5,97.4,5.076,5.068,0.2,0,0,4.451,13.25,0.2,102.6366,3.054,3.055,3.054,100,0,0,0,434.1,172.1,172.1
"2022-11-26 00:07:00",3218091,3.355333,221.1333,1.543341,0.1219217,3.61,0,1.840667,214.0007,3.11933,0.1637668,2.06,0,-999,0,5,97.4,5.063,5.063,0.2,0,0,4.451,13.25,0.2,102.6422,3.054,3.054,3.054,100,0,0,0,434.1,172.1,172.1
"2022-11-26 00:08:00",3218092,3.337333,220.1999,2.314934,0.1487489,3.65,0,1.713333,214.4673,3.962349,0.1796169,1.98,0,-999,0,5,97.4,5.052,5.04,0.2,0,0,4.451,13.24,0.2,102.6422,3.053,3.054,3.053,100,0,0,0,434.1,172.1,172.1
"2022-11-26 00:09:00",3218093,3.21,220.5996,2.893503,0.1438981,3.42,0,1.862667,213.6665,4.641936,0.1209113,2.19,0,-999,0,5.027,97.3,5.127,5.113,0.2,0,0,4.465,13.25,0.2,102.6398,3.053,3.054,3.053,100,0,0,0,434.1,172.1,172.1
"2022-11-26 00:10:00",3218094,3.152667,220.7998,2.832951,0.2180051,3.72,0,1.73,210.9362,5.308188,0.1055778,1.94,0,-999,0,5.047,97.5,5.098,5.099,0.2,0,0,4.471,13.24,0.2,102.645,3.053,3.054,3.052,100,0,0,0,434.1,172.1,172.1
"2022-11-26 00:11:00",3218095,3.146667,221.4671,3.007876,0.1883849,3.4,0,1.598667,214.3996,3.683266,0.1956482,2.04,0,-999,0,5,97.5,5.055,5.057,0.2,0,0,4.471,13.25,0.2,102.6432,3.053,3.054,3.053,100,0,0,0,434.1,172.1,172.1
"2022-11-26 00:12:00",3218096,3.238667,222.7999,3.290089,0.1922452,3.62,0,1.684667,213.8672,3.826747,0.148273,1.87,0,-999,0,4.96,97.2,5.007,4.998,0.2,0,0,4.471,13.25,0.2,102.6452,3.052,3.053,3.052,100,0,0,0,434.1,172.1,172.1
"2022-11-26 00:13:00",3218097,3.091333,222.7324,2.7674,0.1975472,3.49,0,1.687333,219.4671,3.363463,0.1043371,1.85,0,-999,0,4.987,97.2,5.044,5.027,0.2,0,0,4.471,13.24,0.2,102.6468,3.052,3.052,3.052,100,0,0,0,434.1,172.1,172.1
"2022-11-26 00:14:00",3218098,3.23,224.1999,2.662846,0.2010307,3.79,0,1.923333,221.5281,4.989091,0.2322546,2.49,0,-999,0,4.94,97.2,5.011,4.998,0.2,0,0,4.471,13.24,0.2,102.6525,3.052,3.052,3.052,100,0,0,0,434.1,172.1,172.1
"2022-11-26 00:15:00",3218099,3.704667,226.2671,3.677827,0.249743,4.17,0,2.122667,224.0668,5.890969,0.2113596,2.42,0,-999,0,4.9,96.7,4.963,4.966,0.2,0,0,4.471,13.25,0.2,102.6495,3.052,3.053,3.052,100,0,0,0,434.1,172.1,172.1
"2022-11-26 00:16:00",3218100,3.411333,226.2005,2.612437,0.301416,4.21,0,2.068,223.6659,4.540001,0.1405798,2.25,0,-999,0,4.933,96.4,5.041,5.035,0.2,0,0,4.48,13.25,0.2,102.6545,3.053,3.053,3.052,100,0,0,0,434.1,172.1,172.1
"2022-11-26 00:17:00",3218101,3.670667,225.8667,2.679609,0.2479642,4.07,0,1.976667,222.4,2.184549,0.1697318,2.36,0,-999,0,4.987,96.9,5.048,5.061,0.2,0,0,4.493,13.25,0.2,102.6476,3.053,3.054,3.052,100,0,0,0,434.1,172.1,172.1
"2022-11-26 00:18:00",3218102,3.86,226.8002,2.737207,0.2937573,4.37,0,2.088,221.6041,6.104766,0.2792418,2.5,0,-999,0,4.96,97.3,5.045,5.05,0.2,0,0,4.493,13.25,0.2,102.6552,3.054,3.054,3.053,100,0,0,0,434.1,172.1,172.1
"2022-11-26 00:19:00",3218103,3.855334,225.8004,2.687788,0.1948629,4.32,0,2.070667,220.9328,3.940385,0.1884133,2.42,0,-999,0,4.913,97.2,5.025,5.02,0.2,0,0,4.493,13.25,0.2,102.6544,3.054,3.054,3.053,100,0,0,0,434.1,172.1,172.1
"2022-11-26 00:20:00",3218104,3.718667,226.1341,2.985206,0.2073601,4.08,0,2.320667,222.9323,3.889132,0.175441,2.73,0,-999,0,4.933,97.2,5.029,5.027,0.2,0,0,4.497,13.24,0.2,102.6593,3.054,3.054,3.054,100,0,0,0,434.1,172.1,172.1
"2022-11-26 00:21:00",3218105,3.972667,225.9333,2.015413,0.2144905,4.37,0,2.270667,223.7996,2.103799,0.2222751,2.57,0,-999,0,5.047,96.8,5.128,5.13,0.2,0,0,4.503,13.24,0.2,102.659,3.053,3.054,3.053,100,0,0,0,434.1,172.1,172.1
"2022-11-26 00:22:00",3218106,3.880667,226.2665,2.015219,0.2451248,4.35,0,2.318,223.2005,3.101933,0.2015341,2.79,0,-999,0,5.1,97.1,5.158,5.163,0.2,0,0,4.514,13.25,0.2,102.66,3.054,3.054,3.053,100,0,0,0,434.1,172.1,172.1
"2022-11-26 00:23:00",3218107,3.707333,228.0679,2.541262,0.1827007,4,0,2.268667,224.7995,3.32985,0.1692677,2.5,0,-999,0,5.1,97.2,5.139,5.152,0.2,0,0,4.514,13.25,0.2,102.6577,3.054,3.054,3.053,100,0,0,0,434.1,172.1,172.1
"2022-11-26 00:24:00",3218108,3.748,228.0677,2.743144,0.2208831,4.12,0,2.383333,225.1351,3.262343,0.208284,2.75,0,-999,0,5.107,97.1,5.172,5.186,0.2,0,0,4.515,13.25,0.2,102.6544,3.053,3.054,3.053,100,0,0,0,434.1,172.1,172.1
"2022-11-26 00:25:00",3218109,3.743333,230.1333,1.359654,0.1749539,4.02,0,2.176,224.2014,4.859246,0.175909,2.56,0,-999,0,5.1,97,5.185,5.204,0.2,0,0,4.535,13.25,0.2,102.6536,3.052,3.054,3.052,100,0,0,0,434.1,172.1,172.1
"2022-11-26 00:26:00",3218110,3.642,228.9331,2.080489,0.1187827,3.84,0,1.943333,221.9342,2.954113,0.1870353,2.26,0,-999,0,5.093,96.9,5.109,5.127,0.2,0,0,4.536,13.24,0.2,102.6632,3.052,3.052,3.052,100,0,0,0,434.1,172.1,172.1
"2022-11-26 00:27:00",3218111,3.673333,225.3335,1.885598,0.1616444,3.96,0,1.998,218.9391,5.393958,0.2179969,2.41,0,-999,0,5.047,97,5.105,5.122,0.2,0,0,4.55,13.25,0.2,102.6598,3.052,3.052,3.052,100,0,0,0,434.1,172.1,172.1
"2022-11-26 00:28:00",3218112,3.338667,225.5995,3.628838,0.2711916,4.13,0,1.839333,217.5332,3.283018,0.1606431,2.06,0,-999,0,5,97.4,5.076,5.09,0.2,0,0,4.557,13.25,0.2,102.6567,3.052,3.052,3.052,100,0,0,0,434.1,172.1,172.1
"2022-11-26 00:29:00",3218113,3.182,224.0667,3.192894,0.209259,3.54,0,1.803334,215.0697,4.104655,0.1786492,2.14,0,-999,0,5.053,97.6,5.131,5.136,0.2,0,0,4.557,13.25,0.2,102.654,3.052,3.052,3.052,100,0,0,0,434.1,172.1,172.1
"2022-11-26 00:30:00",3218114,2.989333,222.8663,2.186655,0.1551114,3.35,0,1.697333,215.6626,4.088451,0.2280488,2.15,0,-999,0,5.02,97.4,5.075,5.096,0.2,0,0,4.557,13.24,0.2,102.6547,3.052,3.052,3.052,100,0,0,0,434.1,172.1,172.1
"2022-11-26 00:31:00",3218115,3.054667,222.3327,2.440098,0.2259754,3.52,0,1.926,216.6003,2.57622,0.260328,2.42,0,-999,0,5,96.9,5.089,5.089,0.2,0,0,4.563,13.25,0.2,102.6543,3.052,3.052,3.052,100,0,0,0,434.1,172.1,172.1
"2022-11-26 00:32:00",3218116,3.353333,221.9334,1.982101,0.2016487,3.81,0,1.977333,215.1291,4.345882,0.1624999,2.28,0,-999,0,5.007,96.6,5.094,5.107,0.2,0,0,4.579,13.25,0.2,102.6573,3.052,3.052,3.052,100,0,0,0,434.1,172.1,172.1
"2022-11-26 00:33:00",3218117,3.540666,223.4667,3.480522,0.2586752,3.99,0,2.074,212.132,4.394152,0.1614435,2.31,0,-999,0,5.013,96.7,5.081,5.095,0.2,0,0,4.579,13.24,0.2,102.6547,3.052,3.052,3.052,100,0,0,0,434.1,172.1,172.1
"2022-11-26 00:34:00",3218118,3.296,222.2662,3.192218,0.2226747,3.81,0,2.005333,215.0662,2.541647,0.1788432,2.33,0,-999,0,5,96.7,5.038,5.05,0.2,0,0,4.583,13.25,0.2,102.6562,3.052,3.053,3.052,100,0,0,0,434.1,172.1,172.1
"2022-11-26 00:35:00",3218119,3.265334,220.3998,1.925064,0.1302749,3.55,0,1.833333,212.4633,4.813103,0.15512,2.07,0,-999,0,5,97,5.054,5.067,0.2,0,0,4.596,13.25,0.2,102.6529,3.053,3.053,3.052,100,0,0,0,434.1,172.1,172.1
"2022-11-26 00:36:00",3218120,2.994,218.4658,2.060626,0.1226268,3.23,0,1.708,209.6741,5.635536,0.1947032,2.02,0,-999,0,4.993,96.9,5.005,5.009,0.2,0,0,4.6,13.24,0.2,102.6523,3.054,3.054,3.052,100,0,0,0,434.1,172.1,172.1
"2022-11-26 00:37:00",3218121,2.786667,215.9334,1.181159,0.1319933,3.1,0,1.392667,194.7928,6.02224,0.1260934,1.64,0,-999,0,4.873,96.2,4.886,4.865,0.2,0,0,4.6,13.25,0.2,102.649,3.056,3.056,3.054,100,0,0,0,434.1,172.1,172.1
"2022-11-26 00:38:00",3218122,2.570667,213.5332,1.995247,0.1374757,2.72,0,1.315333,191.3361,3.925785,0.09039666,1.49,0,-999,0,4.78,95.9,4.784,4.771,0.2,0,0,4.6,13.25,0.2,102.6464,3.058,3.058,3.056,100,0,0,0,434.1,172.1,172.1
"2022-11-26 00:39:00",3218123,2.037333,209.0666,1.569191,0.1283987,2.31,0,1.044667,180.1998,5.151376,0.1434744,1.28,0,-999,0,4.68,96.1,4.67,4.674,0.2,0,0,4.6,13.25,0.2,102.6472,3.06,3.06,3.058,100,0,0,0,434.1,172.1,172.1
"2022-11-26 00:40:00",3218124,1.866667,207.7333,2.143548,0.1049868,2.06,0,0.802,170.7384,5.823549,0.06794115,0.93,0,-999,0,4.553,96.6,4.528,4.55,0.2,0,0,4.6,13.25,0.2,102.652,3.062,3.062,3.06,100,0,0,0,434.1,172.1,172.1
"2022-11-26 00:41:00",3218125,1.792667,207.6,1.583103,0.08744267,1.95,0,0.7206667,160.2701,6.544722,0.02644911,0.76,0,-999,0,4.367,96.2,4.373,4.383,0.2,0,0,4.6,13.25,0.2,102.6515,3.064,3.064,3.062,100,0,0,0,434.1,172.1,172.1
"2022-11-26 00:42:00",3218126,1.807333,212.3336,2.467128,0.08895441,2.05,0,0.6233333,154.7958,8.899926,0.04189935,0.69,0,-999,0,4.24,95.6,4.194,4.212,0.2,0,0,4.6,13.25,0.2,102.6526,3.065,3.065,3.064,100,0,0,0,434.1,172.1,172.1
"2022-11-26 00:43:00",3218127,1.873333,209.3333,2.890182,0.2050907,2.21,0,0.4513333,138.1142,8.872247,0.07649545,0.55,0,-999,0,4.087,95.1,4.028,4.089,0.2,0,0,4.589,13.25,0.2,102.6516,3.069,3.069,3.066,100,0,0,0,434.1,172.1,172.1
"2022-11-26 00:44:00",3218128,1.869333,213.2663,2.322706,0.171249,2.19,0,0.2433333,114.9122,15.33151,0.05262023,0.36,0,-999,0,3.96,94.8,3.859,3.981,0.2,0,0,4.579,13.25,0.2,102.6546,3.071,3.071,3.069,100,0,0,0,434.1,172.1,172.1
"2022-11-26 00:45:00",3218129,1.806,221.3331,2.867371,0.06916645,1.93,0,0.2386666,115.2853,19.52459,0.06216823,0.35,0,-999,0,3.84,94.8,3.733,3.869,0.2,0,0,4.558,13.25,0.2,102.6549,3.075,3.075,3.071,100,0,0,0,434.1,172.1,172.1
"2022-11-26 00:46:00",3218130,2.294,217.2674,2.014928,0.2201757,2.64,0,0.3053333,134.1626,20.44823,0.1042987,0.52,0,-999,0,3.747,94.3,3.614,3.736,0.2,0,0,4.551,13.25,0.2,102.6591,3.08,3.08,3.075,100,0,0,0,434.1,172.1,172.1
"2022-11-26 00:47:00",3218131,2.274,218.1991,2.454468,0.1886372,2.64,0,0.258,180.3013,69.82531,0.1690838,0.57,0,-999,0,3.66,94.7,3.514,3.64,0.2,0,0,4.532,13.25,0.2,102.6593,3.084,3.084,3.08,100,0,0,0,434.1,172.1,172.1
"2022-11-26 00:48:00",3218132,2.034667,214.2672,2.015171,0.1616938,2.28,0,0.3873333,92.90902,13.51961,0.07784314,0.5,0,-999,0,3.6,95.5,3.443,3.565,0.2,0,0,4.508,13.25,0.2,102.6569,3.088,3.088,3.084,100,0,0,0,434.1,172.1,172.1
"2022-11-26 00:49:00",3218133,2.212667,213.4667,2.57831,0.1705859,2.49,0,0.3726667,149.0882,26.75531,0.1296902,0.61,0,-999,0,3.5,95.4,3.372,3.508,0.2,0,0,4.481,13.25,0.2,102.6562,3.092,3.092,3.088,100,0,0,0,434.1,172.1,172.1
"2022-11-26 00:50:00",3218134,2.138667,210.3331,2.573214,0.1683198,2.48,0,0.286,190.206,15.86722,0.1007174,0.48,0,-999,0,3.42,95.6,3.314,3.449,0.2,0,0,4.461,13.25,0.2,102.6603,3.098,3.098,3.093,100,0,0,0,434.1,172.1,172.1
"2022-11-26 00:51:00",3218135,1.982667,210.3999,2.214868,0.1243901,2.21,0,0.1873333,198.1089,22.22248,0.08496797,0.34,0,-999,0,3.4,96,3.297,3.427,0.2,0,0,4.432,13.25,0.2,102.656,3.103,3.103,3.099,100,0,0,0,434.1,172.1,172.1
"2022-11-26 00:52:00",3218136,1.946667,207.3372,4.107789,0.1699281,2.29,0,0.376,171.2206,19.23709,0.1111635,0.69,0,-999,0,3.387,96.4,3.299,3.407,0.2,0,0,4.401,13.25,0.2,102.6596,3.109,3.109,3.104,100,0,0,0,434.1,172.1,172.1
"2022-11-26 00:53:00",3218137,1.784,197.7982,4.955317,0.1097148,1.99,0,0.4646667,162.0458,16.13173,0.1368145,0.84,0,-999,0,3.32,96.3,3.265,3.358,0.2,0,0,4.375,13.25,0.2,102.6554,3.115,3.115,3.109,100,0,0,0,434.1,172.1,172.1
"2022-11-26 00:54:00",3218138,1.8,193.4664,2.871538,0.1028267,1.97,0,0.4673333,150.7373,10.86008,0.06339999,0.57,0,-999,0,3.3,96.1,3.219,3.304,0.2,0,0,4.344,13.25,0.2,102.6547,3.12,3.12,3.115,100,0,0,0,434.1,172.1,172.1
"2022-11-26 00:55:00",3218139,1.620667,181.266,5.552382,0.1478948,1.86,0,0.7020001,133.3291,14.83777,0.1161723,0.9,0,-999,0,3.28,95.7,3.235,3.301,0.2,0,0,4.313,13.25,0.2,102.6638,3.124,3.124,3.12,100,0,0,0,434.1,172.1,172.1
"2022-11-26 00:56:00",3218140,2.031333,180.9336,2.204897,0.09735613,2.16,0,0.518,114.6259,10.0943,0.1013377,0.73,0,-999,0,3.3,95.9,3.322,3.371,0.2,0,0,4.29,13.25,0.2,102.6625,3.128,3.128,3.124,100,0,0,0,434.1,172.1,172.1
"2022-11-26 00:57:00",3218141,2.056667,183.0673,3.355434,0.07896552,2.23,0,0.4886667,137.396,10.30929,0.08114733,0.63,0,-999,0,3.3,96.4,3.364,3.39,0.2,0,0,4.261,13.25,0.2,102.655,3.132,3.132,3.128,100,0,0,0,434.1,172.1,172.1
"2022-11-26 00:58:00",3218142,2.086,183.5327,2.629148,0.1334066,2.33,0,0.5226666,148.6908,8.705952,0.0543405,0.62,0,-999,0,3.3,97.2,3.355,3.379,0.2,0,0,4.225,13.25,0.2,102.6547,3.134,3.134,3.132,100,0,0,0,434.1,172.1,172.1
"2022-11-26 00:59:00",3218143,2.046667,186.7335,1.981854,0.1268945,2.33,0,0.4506666,156.6352,7.350722,0.09773888,0.59,0,-999,0,3.207,97.6,3.305,3.315,0.2,0,0,4.205,13.25,0.2,102.6604,3.137,3.137,3.134,100,0,0,0,434.1,172.1,172.1
"2022-11-26 01:00:00",3218144,2.02,190.2667,1.339931,0.165005,2.37,0,0.2713333,178.0311,10.00032,0.06897987,0.46,0,-999,0,3.187,97.7,3.244,3.261,0.2,0,0,4.172,13.25,0.2,102.6644,3.138,3.138,3.137,100,0,0,0,434.1,172.1,172.1
"2022-11-26 01:01:00",3218145,2.296666,195.2613,5.528342,0.09903983,2.46,0,0.4673333,173.7275,6.998673,0.08992341,0.64,0,-999,0,3.1,97.7,3.221,3.226,0.2,0,0,4.141,13.25,0.2,102.6612,3.14,3.14,3.138,100,0,0,0,434.1,172.1,172.1
"2022-11-26 01:02:00",3218146,2.300667,200.599,3.199336,0.1470812,2.56,0,0.4966667,173.3534,9.734468,0.0703957,0.61,0,-999,0,3.1,97.1,3.17,3.188,0.2,0,0,4.119,13.25,0.2,102.6659,3.141,3.141,3.14,100,0,0,0,434.1,172.1,172.1
"2022-11-26 01:03:00",3218147,2.142,203.5993,3.261291,0.1018626,2.27,0,0.3013333,176.2599,12.54262,0.1033355,0.61,0,-999,0,3.1,96.8,3.112,3.169,0.2,0,0,4.083,13.25,0.2,102.6603,3.142,3.142,3.141,100,0,0,0,434.1,172.1,172.1
"2022-11-26 01:04:00",3218148,2.047333,205.5325,3.574905,0.13339,2.27,0,0.3366667,171.3991,4.159035,0.07372623,0.45,0,-999,0,3.1,96.9,3.092,3.15,0.2,0,0,4.051,13.25,0.2,102.6653,3.144,3.144,3.142,100,0,0,0,434.1,172.1,172.1
"2022-11-26 01:05:00",3218149,2.051333,205.0666,2.541724,0.1415093,2.36,0,0.3993333,168.2365,8.437749,0.04725345,0.51,0,-999,0,3.08,97,3.085,3.124,0.2,0,0,4.027,13.25,0.2,102.6619,3.145,3.145,3.144,100,0,0,0,434.1,172.1,172.1
"2022-11-26 01:06:00",3218150,2.012667,207.134,2.848441,0.145532,2.25,0,0.426,170.9965,8.25873,0.05908186,0.53,0,-999,0,3,96.9,3.076,3.109,0.2,0,0,3.991,13.25,0.2,102.6624,3.146,3.146,3.145,100,0,0,0,434.1,172.1,172.1
"2022-11-26 01:07:00",3218151,2.009333,210.8009,2.612137,0.07442818,2.14,0,0.5266666,172.8024,6.481348,0.03875851,0.6,0,-999,0,3,96.9,3.036,3.071,0.2,0,0,3.962,13.25,0.2,102.6672,3.147,3.147,3.146,100,0,0,0,434.1,172.1,172.1
"2022-11-26 01:08:00",3218152,1.863333,209.6,2.751597,0.08978986,2.08,0,0.5466667,164.864,6.473845,0.06246777,0.65,0,-999,0,2.993,96.9,2.987,3.012,0.2,0,0,3.931,13.24,0.2,102.6643,3.147,3.147,3.146,100,0,0,0,434.1,172.1,172.1
"2022-11-26 01:09:00",3218153,1.868,205.7337,1.878263,0.07091779,1.96,0,0.5426667,160.8098,6.139709,0.06147809,0.67,0,-999,0,2.907,96.6,2.946,2.972,0.2,0,0,3.902,13.24,0.2,102.6647,3.147,3.147,3.147,100,0,0,0,434.1,172.1,172.1
"2022-11-26 01:10:00",3218154,1.907333,210.27,4.264304,0.1209114,2.19,0,0.5066667,159.0143,5.798253,0.07142985,0.65,0,-999,0,2.9,96.9,2.906,2.951,0.2,0,0,3.87,13.25,0.2,102.6611,3.147,3.148,3.146,100,0,0,0,434.1,172.1,172.1
"2022-11-26 01:11:00",3218155,1.772667,210,1.154765,0.0887293,1.99,0,0.5199999,151.8737,7.987828,0.0708049,0.66,0,-999,0,2.853,97,2.876,2.91,0.2,0,0,3.839,13.24,0.2,102.6617,3.148,3.148,3.147,100,0,0,0,434.1,172.1,172.1
"2022-11-26 01:12:00",3218156,1.683333,210.2021,3.654274,0.08506205,1.81,0,0.5606667,155.5038,9.755211,0.06060436,0.65,0,-999,0,2.8,97.1,2.854,2.885,0.2,0,0,3.806,13.25,0.2,102.664,3.148,3.148,3.148,100,0,0,0,434.1,172.1,172.1
"2022-11-26 01:13:00",3218157,1.988667,214.4668,1.707397,0.08196476,2.14,0,0.576,145.6587,5.243755,0.07337574,0.68,0,-999,0,2.8,97,2.845,2.861,0.2,0,0,3.779,13.25,0.2,102.6607,3.148,3.148,3.148,100,0,0,0,434.1,172.1,172.1
"2022-11-26 01:14:00",3218158,1.868,215,1.460576,0.09353786,2.02,0,0.3953333,159.8654,7.774044,0.06581455,0.54,0,-999,0,2.807,96.9,2.862,2.874,0.2,0,0,3.747,13.24,0.2,102.6661,3.148,3.148,3.148,100,0,0,0,434.1,172.1,172.1
"2022-11-26 01:15:00",3218159,1.868667,218.9331,1.913484,0.088383,2.06,0,0.2673333,157.4552,17.4275,0.08887944,0.39,0,-999,0,2.8,97.3,2.855,2.873,0.2,0,0,3.713,13.25,0.2,102.6658,3.15,3.15,3.148,100,0,0,0,434.1,172.1,172.1
"2022-11-26 01:16:00",3218160,1.888667,221.396,4.906943,0.1248394,2.11,0,0.23,189.0293,45.24357,0.0861781,0.42,0,-999,0,2.8,97.7,2.835,2.87,0.2,0,0,3.686,13.25,0.2,102.6723,3.15,3.15,3.148,100,0,0,0,434.1,172.1,172.1
"2022-11-26 01:17:00",3218161,1.848667,218.4663,2.499359,0.09749304,1.97,0,0.3873333,131.2446,19.47238,0.09319992,0.55,0,-999,0,2.8,97.2,2.864,2.864,0.2,0,0,3.642,13.25,0.2,102.6692,3.15,3.15,3.148,100,0,0,0,434.1,172.1,172.1
"2022-11-26 01:18:00",3218162,1.742667,217.5334,1.585945,0.1813456,2.01,0,0.4246667,116.0468,9.116514,0.06216823,0.56,0,-999,0,2.807,97.2,2.924,2.903,0.2,0,0,3.6,13.24,0.2,102.6687,3.151,3.151,3.15,100,0,0,0,434.1,172.1,172.1
"2022-11-26 01:19:00",3218163,1.458,212.7333,3.622397,0.166341,1.88,0,0.5213333,107.0103,13.35957,0.1147093,0.73,0,-999,0,2.893,97.5,2.974,2.942,0.2,0,0,3.57,13.24,0.2,102.6701,3.151,3.151,3.15,100,0,0,0,434.1,172.1,172.1
"2022-11-26 01:20:00",3218164,1.367333,210.2661,3.731676,0.1867072,1.82,0,0.7040001,105.7306,4.233488,0.08654864,0.8,0,-999,0,2.9,97.6,3.022,2.988,0.2,0,0,3.537,13.24,0.2,102.6704,3.151,3.151,3.151,100,0,0,0,434.1,172.1,172.1
"2022-11-26 01:21:00",3218165,1.222667,200.0074,9.786037,0.2535736,1.65,0,0.9653333,97.73341,3.295123,0.1200481,1.19,0,-999,0,2.92,97.7,3.074,3.002,0.2,0,0,3.507,13.23,0.2,102.6655,3.151,3.151,3.151,100,0,0,0,434.1,172.1,172.1
"2022-11-26 01:22:00",3218166,1.131333,188.8971,13.48842,0.1762902,1.54,0,1.237333,98.60092,3.516636,0.1597276,1.48,0,-999,0,2.967,97.9,3.074,3.021,0.2,0,0,3.48,13.25,0.2,102.668,3.152,3.153,3.151,100,0,0,0,434.1,172.1,172.1
"2022-11-26 01:23:00",3218167,0.9946666,178.2896,10.78999,0.2052272,1.49,0,1.357333,103.4664,2.578159,0.1365512,1.58,0,-999,0,2.853,97.4,2.938,2.925,0.2,0,0,3.447,13.25,0.2,102.6694,3.153,3.153,3.152,100,0,0,0,434.1,172.1,172.1
"2022-11-26 01:24:00",3218168,0.9953334,169.7308,13.20354,0.1466909,1.36,0,1.413333,111.0683,4.138014,0.1399365,1.59,0,-999,0,2.8,97.2,2.891,2.843,0.2,0,0,3.42,13.25,0.2,102.6628,3.153,3.153,3.153,100,0,0,0,434.1,172.1,172.1
"2022-11-26 01:25:00",3218169,1.398667,171.4005,4.045791,0.1030771,1.55,0,1.164667,119.3361,5.530836,0.102298,1.36,0,-999,0,2.807,97.7,2.917,2.897,0.2,0,0,3.388,13.25,0.2,102.6648,3.154,3.154,3.153,100,0,0,0,434.1,172.1,172.1
"2022-11-26 01:26:00",3218170,1.496,167.8853,7.579233,0.06770522,1.61,0,1.132667,107.7978,4.384123,0.04850657,1.23,0,-999,0,2.667,98.2,2.703,2.729,0.2,0,0,3.364,13.25,0.2,102.6708,3.154,3.154,3.153,100,0,0,0,434.1,172.1,172.1
"2022-11-26 01:27:00",3218171,1.507333,151.928,6.879857,0.08947747,1.68,0,1.288667,113.7995,4.213232,0.08032158,1.48,0,-999,0,2.6,98.2,2.661,2.681,0.2,0,0,3.334,13.25,0.2,102.6723,3.154,3.155,3.153,100,0,0,0,434.1,172.1,172.1
"2022-11-26 01:28:00",3218172,1.544,152.7944,5.327665,0.1257405,1.75,0,1.165333,99.92924,4.185094,0.06097723,1.33,0,-999,0,2.527,98.1,2.586,2.604,0.2,0,0,3.307,13.24,0.2,102.6718,3.153,3.154,3.153,100,0,0,0,434.1,172.1,172.1
"2022-11-26 01:29:00",3218173,1.652,144.4663,2.333896,0.1124396,1.85,0,1.285333,108.4675,5.186811,0.09569861,1.47,0,-999,0,2.46,97.7,2.519,2.53,0.2,0,0,3.282,13.25,0.2,102.6702,3.153,3.153,3.153,100,0,0,0,434.1,172.1,172.1
"2022-11-26 01:30:00",3218174,1.990667,137.3336,1.659952,0.06049424,2.11,0,1.302667,111.1336,2.362428,0.08465353,1.43,0,-999,0,2.46,97.6,2.58,2.545,0.2,0,0,3.255,13.25,0.2,102.6687,3.152,3.153,3.152,100,0,0,0,434.1,172.1,172.1
"2022-11-26 01:31:00",3218175,2.159333,138.5334,2.028634,0.1021415,2.29,0,1.358,111.0663,3.254609,0.1140877,1.6,0,-999,0,2.5,97.9,2.607,2.577,0.2,0,0,3.234,13.24,0.2,102.6674,3.151,3.151,3.151,100,0,0,0,434.1,172.1,172.1
"2022-11-26 01:32:00",3218176,2.207333,138.6678,3.175526,0.09276973,2.43,0,1.546,112.1332,2.47272,0.07973289,1.68,0,-999,0,2.5,98,2.581,2.536,0.2,0,0,3.206,13.24,0.2,102.6647,3.148,3.151,3.148,100,0,0,0,434.1,172.1,172.1
"2022-11-26 01:33:00",3218177,2.254,139.4672,2.028345,0.08228405,2.41,0,1.68,113.9331,2.488753,0.07257181,1.78,0,-999,0,2.5,98.3,2.584,2.537,0.2,0,0,3.177,13.25,0.2,102.6621,3.148,3.15,3.148,100,0,0,0,434.1,172.1,172.1
"2022-11-26 01:34:00",3218178,2.317333,141.2664,1.768735,0.09760235,2.49,0,1.688667,117.0017,4.675509,0.1348514,1.9,0,-999,0,2.5,98.4,2.644,2.573,0.2,0,0,3.16,13.25,0.2,102.6631,3.147,3.148,3.147,100,0,0,0,434.1,172.1,172.1
"2022-11-26 01:35:00",3218179,2.283334,143.5999,1.743482,0.09030811,2.42,0,1.654,120.0669,2.567878,0.1355384,1.94,0,-999,0,2.567,98.3,2.691,2.653,0.2,0,0,3.134,13.25,0.2,102.6664,3.147,3.148,3.147,100,0,0,0,434.1,172.1,172.1
"2022-11-26 01:36:00",3218180,2.408,145.2666,2.048234,0.08588365,2.56,0,1.582667,121.0002,2.581729,0.130152,1.83,0,-999,0,2.627,98.6,2.755,2.708,0.2,0,0,3.109,13.23,0.2,102.6611,3.144,3.147,3.144,100,0,0,0,434.1,172.1,172.1
"2022-11-26 01:37:00",3218181,2.380667,149.8668,2.801328,0.08977504,2.5,0,1.77,124.0001,1.632959,0.09979978,1.91,0,-999,0,2.7,98.9,2.819,2.782,0.2,0,0,3.089,13.25,0.2,102.6598,3.144,3.145,3.144,100,0,0,0,434.1,172.1,172.1
"2022-11-26 01:38:00",3218182,2.36,150.7276,4.82076,0.1605823,2.61,0,1.715333,126.525,4.234903,0.1727374,2.11,0,-999,0,2.74,99.1,2.863,2.836,0.2,0,0,3.076,13.24,0.2,102.6621,3.142,3.144,3.142,100,0,0,0,434.1,172.1,172.1
"2022-11-26 01:39:00",3218183,2.456,148.1336,3.116721,0.1095932,2.59,0,1.576667,132.1337,3.422376,0.1625491,1.8,0,-999,0,2.813,99.1,2.937,2.92,0.2,0,0,3.052,13.25,0.2,102.6646,3.141,3.142,3.141,100,0,0,0,434.1,172.1,172.1
"2022-11-26 01:40:00",3218184,2.323334,150.9311,3.836686,0.08227327,2.49,0,1.36,135.5307,5.70001,0.1445453,1.61,0,-999,0,2.82,99.4,2.957,2.918,0.2,0,0,3.036,13.24,0.2,102.6691,3.138,3.141,3.138,100,0,0,0,434.1,172.1,172.1
"2022-11-26 01:41:00",3218185,2.357333,150.7325,2.619142,0.08774711,2.55,0,1.453333,138.4677,3.665855,0.1097675,1.61,0,-999,0,2.9,99.6,3.049,3.007,0.2,0,0,3.018,13.24,0.2,102.6704,3.136,3.138,3.136,100,0,0,0,434.1,172.1,172.1
"2022-11-26 01:42:00",3218186,2.254,156.8701,4.300753,0.1137131,2.47,0,1.509333,133.2013,4.399202,0.1313756,1.71,0,-999,0,2.987,99.4,3.122,3.074,0.2,0,0,2.999,13.24,0.2,102.6684,3.134,3.137,3.134,100,0,0,0,434.1,172.1,172.1
"2022-11-26 01:43:00",3218187,2.317333,155.601,4.222384,0.09719166,2.54,0,1.593333,134.2705,4.942696,0.07938654,1.69,0,-999,0,3.007,99,3.145,3.114,0.2,0,0,2.993,13.24,0.2,102.6711,3.133,3.134,3.133,100,0,0,0,434.1,172.1,172.1
"2022-11-26 01:44:00",3218188,2.552,157,1.673285,0.06079472,2.66,0,1.588,140.4666,2.028345,0.09873872,1.86,0,-999,0,3.067,99.1,3.192,3.139,0.2,0,0,2.971,13.24,0.2,102.6659,3.131,3.132,3.129,100,0,0,0,434.1,172.1,172.1
"2022-11-26 01:45:00",3218189,2.58,160.9332,2.1123,0.08617812,2.76,0,1.568,141.8,1.600016,0.108148,1.75,0,-999,0,3.087,99.6,3.212,3.158,0.2,0,0,2.96,13.24,0.2,102.6699,3.127,3.129,3.127,100,0,0,0,434.1,172.1,172.1
"2022-11-26 01:46:00",3218190,2.71,166.9332,1.842635,0.07527725,2.85,0,1.574,146.9986,3.203317,0.08762036,1.7,0,-999,0,3.04,99.3,3.156,3.116,0.2,0,0,2.95,13.24,0.2,102.673,3.123,3.126,3.123,100,0,0,0,434.1,172.1,172.1
"2022-11-26 01:47:00",3218191,2.684667,169.4,2.184549,0.1010522,2.84,0,1.567333,150.3333,1.247329,0.09066176,1.73,0,-999,0,2.973,99.2,3.096,3.043,0.2,0,0,2.934,13.24,0.2,102.6694,3.12,3.123,3.12,100,0,0,0,434.1,172.1,172.1